Location: Unspecified
(41.5000°N, 0.0000°E)
Time: 04:04:23
(UTC+00:00)

deb Explorer IX - Pass Details

Date: 23 June 2019
Orbit: 539 x 1112 km, 38.8° (Epoch: 21 July)

Event Time Altitude Azimuth Distance (km) Brightness Sun altitude
Rises 11:11:13 0° 194° (SSW) 3,604 ? 69.0°
Reaches altitude 10° 11:14:52 10° 174° (S) 2,765 ? 69.4°
Maximum altitude 11:18:43 16° 139° (SE) 2,440 ? 69.8°
Drops below altitude 10° 11:22:46 10° 104° (ESE) 2,926 ? 70.1°
Sets 11:26:47 0° 85° (E) 3,924 ? 70.5°
